When you browse on this site, cookies collect data to enhance your experience and personalize the content and advertising you see.
Visit our Privacy Policy to learn more. By continuing to use the site, you agree to this use of cookies and data.

Stündliche Wetter Bolshie Karnyshi

Heute, 13 Juli, Montag

Zeit Temperatur Niederschläge Wind Luftdruck Luftfeuchtigkeit
00:00 +9°C° 0 mm 3 m/S 740 mmHg 94%
01:00 +8°C° 0 mm 3 m/S 741 mmHg 94%
02:00 +8°C° 0 mm 3 m/S 741 mmHg 95%
03:00 +7°C° 0 mm 3 m/S 741 mmHg 95%
04:00 +7°C° 0 mm 3 m/S 740 mmHg 95%
05:00 +7°C° 0 mm 3 m/S 740 mmHg 96%
06:00 +8°C° 0 mm 3 m/S 740 mmHg 91%
07:00 +10°C° 0 mm 3 m/S 740 mmHg 85%
08:00 +12°C° 0 mm 4 m/S 740 mmHg 80%
09:00 +13°C° 0 mm 4 m/S 740 mmHg 75%
10:00 +14°C° 0 mm 4 m/S 740 mmHg 70%
11:00 +17°C° 0 mm 4 m/S 739 mmHg 65%
12:00 +17°C° 0.1 mm 4 m/S 739 mmHg 62%
13:00 +18°C° 0.1 mm 4 m/S 739 mmHg 60%
14:00 +18°C° 0.1 mm 4 m/S 739 mmHg 58%
15:00 +18°C° 0 mm 3 m/S 739 mmHg 59%
16:00 +18°C° 0 mm 3 m/S 738 mmHg 60%
17:00 +18°C° 0 mm 3 m/S 738 mmHg 62%
18:00 +17°C° 0 mm 3 m/S 738 mmHg 68%
19:00 +16°C° 0 mm 2 m/S 738 mmHg 73%
20:00 +14°C° 0 mm 2 m/S 738 mmHg 79%
21:00 +13°C° 0 mm 2 m/S 738 mmHg 83%
22:00 +12°C° 0 mm 2 m/S 738 mmHg 87%
23:00 +10°C° 0 mm 2 m/S 738 mmHg 92%

Morgen, 14 Juli, Dienstag

Zeit Temperatur Niederschläge Wind Luftdruck Luftfeuchtigkeit
00:00 +10°C° 0 mm 2 m/S 738 mmHg 93%
01:00 +9°C° 0 mm 2 m/S 738 mmHg 94%
02:00 +9°C° 0 mm 2 m/S 738 mmHg 95%
03:00 +9°C° 0 mm 2 m/S 738 mmHg 96%
04:00 +9°C° 0 mm 2 m/S 738 mmHg 97%
05:00 +9°C° 0 mm 2 m/S 737 mmHg 98%
06:00 +10°C° 0 mm 2 m/S 738 mmHg 93%
07:00 +13°C° 0 mm 2 m/S 738 mmHg 87%
08:00 +15°C° 0 mm 2 m/S 738 mmHg 82%
09:00 +16°C° 0 mm 3 m/S 738 mmHg 77%
10:00 +17°C° 0 mm 3 m/S 738 mmHg 72%
11:00 +19°C° 0 mm 3 m/S 738 mmHg 67%
12:00 +19°C° 0.2 mm 3 m/S 737 mmHg 67%
13:00 +19°C° 0.2 mm 3 m/S 737 mmHg 66%
14:00 +20°C° 0.2 mm 4 m/S 737 mmHg 65%
15:00 +20°C° 0.2 mm 4 m/S 737 mmHg 67%
16:00 +19°C° 0.2 mm 4 m/S 737 mmHg 68%
17:00 +19°C° 0.2 mm 4 m/S 736 mmHg 70%
18:00 +18°C° 0.1 mm 3 m/S 736 mmHg 75%
19:00 +17°C° 0.1 mm 3 m/S 736 mmHg 81%
20:00 +15°C° 0.1 mm 2 m/S 736 mmHg 87%
21:00 +15°C° 0 mm 2 m/S 736 mmHg 89%
22:00 +14°C° 0 mm 2 m/S 736 mmHg 91%
23:00 +13°C° 0 mm 2 m/S 736 mmHg 93%

übermorgen, 15 Juli, Mittwoch

Zeit Temperatur Niederschläge Wind Luftdruck Luftfeuchtigkeit
00:00 +12°C° 0 mm 2 m/S 736 mmHg 94%
01:00 +12°C° 0 mm 2 m/S 736 mmHg 94%
02:00 +10°C° 0 mm 2 m/S 736 mmHg 95%
03:00 +10°C° 0 mm 2 m/S 736 mmHg 95%
04:00 +10°C° 0 mm 2 m/S 736 mmHg 95%
05:00 +10°C° 0 mm 2 m/S 736 mmHg 95%
06:00 +13°C° 0 mm 2 m/S 736 mmHg 91%
07:00 +14°C° 0 mm 2 m/S 736 mmHg 86%
08:00 +16°C° 0 mm 2 m/S 737 mmHg 82%
09:00 +17°C° 0 mm 2 m/S 736 mmHg 76%
10:00 +19°C° 0 mm 2 m/S 736 mmHg 69%
11:00 +20°C° 0 mm 2 m/S 736 mmHg 63%
12:00 +21°C° 0 mm 2 m/S 736 mmHg 62%
13:00 +21°C° 0 mm 2 m/S 736 mmHg 60%
14:00 +23°C° 0 mm 2 m/S 736 mmHg 59%
15:00 +21°C° 0.1 mm 2 m/S 736 mmHg 61%
16:00 +21°C° 0.1 mm 2 m/S 736 mmHg 63%
17:00 +21°C° 0.1 mm 2 m/S 736 mmHg 65%
18:00 +20°C° 0.4 mm 2 m/S 736 mmHg 72%
19:00 +19°C° 0.4 mm 1 m/S 736 mmHg 78%
20:00 +18°C° 0.4 mm 1 m/S 736 mmHg 85%
21:00 +16°C° 0.1 mm 1 m/S 736 mmHg 86%
22:00 +14°C° 0.1 mm 0 m/S 736 mmHg 87%
23:00 +13°C° 0.1 mm 0 m/S 736 mmHg 88%

16 Juli, Donnerstag

Zeit Temperatur Niederschläge Wind Luftdruck Luftfeuchtigkeit
00:00 +13°C° 0 mm 0 m/S 736 mmHg 88%
01:00 +12°C° 0 mm 0 m/S 736 mmHg 89%
02:00 +12°C° 0 mm 0 m/S 736 mmHg 89%
03:00 +12°C° 0 mm 0 m/S 736 mmHg 90%
04:00 +12°C° 0 mm 0 m/S 736 mmHg 90%
05:00 +12°C° 0 mm 0 m/S 736 mmHg 90%
06:00 +14°C° 0 mm 0 m/S 736 mmHg 86%
07:00 +16°C° 0 mm 0 m/S 736 mmHg 83%
08:00 +17°C° 0 mm 0 m/S 736 mmHg 79%
09:00 +19°C° 0.1 mm 0 m/S 736 mmHg 73%
10:00 +22°C° 0.1 mm 1 m/S 736 mmHg 67%
11:00 +23°C° 0.1 mm 1 m/S 736 mmHg 62%
12:00 +24°C° 0.1 mm 1 m/S 736 mmHg 59%
13:00 +24°C° 0.1 mm 1 m/S 736 mmHg 57%
14:00 +25°C° 0.1 mm 1 m/S 736 mmHg 54%
15:00 +25°C° 0.2 mm 1 m/S 736 mmHg 56%
16:00 +24°C° 0.2 mm 1 m/S 736 mmHg 58%
17:00 +24°C° 0.2 mm 1 m/S 736 mmHg 59%
18:00 +23°C° 0.1 mm 1 m/S 736 mmHg 67%
19:00 +21°C° 0.1 mm 1 m/S 736 mmHg 75%
20:00 +19°C° 0.1 mm 1 m/S 736 mmHg 82%
21:00 +17°C° 0 mm 2 m/S 736 mmHg 85%
22:00 +16°C° 0 mm 2 m/S 736 mmHg 87%
23:00 +15°C° 0 mm 2 m/S 736 mmHg 89%

17 Juli, Freitag

Zeit Temperatur Niederschläge Wind Luftdruck Luftfeuchtigkeit
00:00 +15°C° 0 mm 2 m/S 736 mmHg 89%
01:00 +14°C° 0 mm 2 m/S 736 mmHg 89%
02:00 +14°C° 0 mm 2 m/S 736 mmHg 89%
03:00 +13°C° 0 mm 2 m/S 736 mmHg 88%
04:00 +13°C° 0 mm 2 m/S 736 mmHg 87%
05:00 +13°C° 0 mm 2 m/S 736 mmHg 86%
06:00 +15°C° 0 mm 2 m/S 736 mmHg 81%
07:00 +16°C° 0 mm 2 m/S 737 mmHg 77%
08:00 +18°C° 0 mm 2 m/S 737 mmHg 73%
09:00 +19°C° 0 mm 2 m/S 737 mmHg 68%
10:00 +21°C° 0 mm 2 m/S 737 mmHg 63%
11:00 +22°C° 0 mm 3 m/S 737 mmHg 59%
12:00 +24°C° 0 mm 3 m/S 737 mmHg 58%
13:00 +24°C° 0 mm 3 m/S 737 mmHg 57%
14:00 +24°C° 0 mm 3 m/S 737 mmHg 57%
15:00 +24°C° 0 mm 3 m/S 737 mmHg 58%
16:00 +24°C° 0 mm 3 m/S 737 mmHg 59%
17:00 +24°C° 0 mm 3 m/S 737 mmHg 60%
18:00 +21°C° 0 mm 2 m/S 737 mmHg 66%
19:00 +19°C° 0 mm 2 m/S 737 mmHg 72%
20:00 +18°C° 0 mm 2 m/S 737 mmHg 78%
21:00 +17°C° 0 mm 2 m/S 737 mmHg 80%
22:00 +16°C° 0 mm 1 m/S 737 mmHg 83%
23:00 +14°C° 0 mm 1 m/S 738 mmHg 85%

18 Juli, Samstag

Zeit Temperatur Niederschläge Wind Luftdruck Luftfeuchtigkeit
00:00 +14°C° 0 mm 1 m/S 738 mmHg 85%
01:00 +14°C° 0 mm 1 m/S 738 mmHg 85%
02:00 +13°C° 0 mm 1 m/S 738 mmHg 85%
03:00 +13°C° 0 mm 1 m/S 738 mmHg 86%
04:00 +13°C° 0 mm 1 m/S 738 mmHg 87%
05:00 +13°C° 0 mm 1 m/S 738 mmHg 88%
06:00 +15°C° 0 mm 1 m/S 738 mmHg 83%
07:00 +16°C° 0 mm 2 m/S 738 mmHg 78%
08:00 +18°C° 0 mm 2 m/S 738 mmHg 73%
09:00 +20°C° 0 mm 2 m/S 738 mmHg 67%
10:00 +21°C° 0 mm 2 m/S 738 mmHg 61%
11:00 +23°C° 0 mm 2 m/S 738 mmHg 55%
12:00 +23°C° 0.5 mm 2 m/S 738 mmHg 59%
13:00 +23°C° 0.5 mm 2 m/S 738 mmHg 62%
14:00 +23°C° 0.5 mm 2 m/S 738 mmHg 65%
15:00 +23°C° 1.2 mm 2 m/S 738 mmHg 68%
16:00 +21°C° 1.2 mm 2 m/S 738 mmHg 70%
17:00 +21°C° 1.2 mm 2 m/S 738 mmHg 73%
18:00 +20°C° 0.2 mm 2 m/S 738 mmHg 76%
19:00 +18°C° 0.2 mm 2 m/S 738 mmHg 79%
20:00 +17°C° 0.2 mm 2 m/S 738 mmHg 82%
21:00 +16°C° 0 mm 2 m/S 738 mmHg 85%
22:00 +15°C° 0 mm 2 m/S 738 mmHg 88%
23:00 +14°C° 0 mm 2 m/S 738 mmHg 91%
Mehr zeigen